Location: Unspecified
(54.1780°N, 0.0000°E)
Time: 19:23:41
(UTC+00:00)

Transit 2A - Pass Details

Date: 26 June 2019
Orbit: 594 x 965 km, 66.7° (Epoch: 16 July)

Event Time Altitude Azimuth Distance (km) Brightness Sun altitude
Rises 03:21:06 0° 285° (WNW) 3,632 9.2 -1.5°
Reaches altitude 10° 03:24:13 10° 298° (WNW) 2,656 8.6 -1.2°
Maximum altitude 03:29:15 25° 352° (N) 1,737 8.4 -0.7°
Drops below altitude 10° 03:34:01 10° 47° (NE) 2,493 11.0 -0.2°
Sets 03:36:51 0° 61° (ENE) 3,364 11.4 0.1°
